TIME,DELAY(SENSOR),PRES,OXYGEN,RAWTEMP,T(OPTODE),TCPHASE,FLUOR,BETA(BETA700),BETA(BETA412),BETA(BETA440),CDOM,C(CSC),ED(ED412.20),ED(ED444.00),ED(ED489.60),ED(ED554.30),LU(LU412.10),LU(LU443.90),LU(LU489.70),LU(LU554.70),COMP,TILTX,TILTY,CHECK
1346641490,5809,903.8300170898438000,34.0191917419433600,555.1196289062500000,4.6370511054992680,56.3916893005371100,56,100,100,77,82,15562,0,0,0,0,2147123885,2147774564,2147570404,2147567945,918,3,13,4192
1346645086,5810,977.4299926757812000,38.8936004638671900,562.4984741210938000,4.4084382057189940,55.7040290832519500,55,99,102,79,82,15562,0,0,0,0,2147123392,2147771748,2147569426,2147569270,1403,3,13,8702
1346648686,5808,995.4099731445312000,37.0440788269043000,564.2034301757812000,4.3555507659912110,56.0020103454589840,56,97,99,79,82,15565,0,0,0,0,2147122496,2147774454,2147571629,2147567542,126,3,13,31597
1346652286,5810,1000.9299926757812000,36.8142509460449200,564.0606079101562000,4.3599820137023930,56.0373611450195300,55,99,100,78,83,15563,0,0,0,0,2147122770,2147774235,2147570450,2147566811,3482,3,13,44020
1346655886,5811,1008.9799804687500000,37.2338485717773440,564.0850219726562000,4.3592238426208500,55.9744911193847660,56,99,102,77,83,15562,0,0,0,0,2147122825,2147774665,2147570038,2147568429,145,3,13,1809
1346659486,5811,1001.2500000000000000,37.3506889343261700,564.8333740234375000,4.3360018730163570,55.9621810913085940,55,102,101,78,82,15565,0,0,0,0,2147120009,2147771675,2147572973,2147565312,151,3,13,56032
1346663086,5811,1009.0599975585938000,37.0222091674804700,565.1088867187500000,4.3274540901184080,56.0148696899414060,55,99,101,77,82,15564,0,0,0,0,2147126966,2147773412,2147568941,2147564251,55,3,13,29511
1346666686,5810,1007.8300170898438000,36.1005516052246100,565.7473754882812000,4.3076357841491700,56.1625213623046900,55,101,99,77,83,15563,0,0,0,0,2147122112,2147774976,2147572178,2147565979,263,3,13,57633
1346670286,5810,1010.8200073242188000,36.1194381713867200,565.7694702148438000,4.3069500923156740,56.1654090881347660,54,97,101,78,83,15562,0,0,0,0,2147120996,2147775122,2147570560,2147567661,291,3,13,26124
1346673886,5809,1017.0000000000000000,37.3362998962402340,564.7371826171875000,4.3389887809753420,55.9668884277343750,55,100,101,78,82,15562,0,0,0,0,2147122660,2147769289,2147573668,2147566774,3400,3,13,28869
1346677486,5810,1005.6099853515625000,36.6474800109863300,565.5661010742188000,4.3132629394531250,56.0810394287109400,55,100,100,80,83,15563,0,0,0,0,2147120475,2147772169,2147570916,2147568228,937,3,13,33964
1346681086,5812,1015.4500122070312000,36.5555610656738300,565.8054809570312000,4.3058338165283200,56.0942001342773440,55,98,102,78,83,15561,0,0,0,0,2147123245,2147771355,2147573915,2147567917,1138,3,13,6883
1346684686,5812,1012.0599975585938000,36.0556106567382800,565.7932739257812000,4.3062100410461430,56.1705017089843750,55,99,99,78,82,15558,0,0,0,0,2147123437,2147771648,2147573147,2147567862,1460,3,13,45469
1346688286,5810,1015.1199951171875000,36.3553390502929700,566.0474243164062000,4.2983250617980960,56.1335182189941400,55,97,101,78,83,15558,0,0,0,0,2147122468,2147771794,2147568914,2147570294,189,3,13,45498
1346691886,5809,1018.2100219726562000,36.3530006408691400,565.9630737304688000,4.3009409904479980,56.1273612976074200,56,97,100,79,81,15544,0,0,0,0,2147121929,2147770934,2147574299,2147565531,140,3,13,53908
1346695486,5807,1016.5599975585938000,36.6833000183105500,565.9241943359375000,4.3021488189697270,56.0790596008300800,56,100,101,78,82,15555,0,0,0,0,2147118765,2147770212,2147571245,2147564324,237,3,13,57689
1346699086,5812,1017.0399780273438000,36.5870704650878900,566.0410766601562000,4.2985172271728520,56.0957412719726560,55,99,101,76,83,15557,0,0,0,0,2147123364,2147773385,2147568612,2147572388,400,3,13,29102
1346702686,5808,1009.0900268554688000,38.4820594787597660,566.1942138671875000,4.2937679290771480,55.8021888732910160,55,98,99,78,82,15551,0,0,0,0,2147120512,2147774198,2147572288,2147570779,460,3,13,23767
1346706286,5810,1014.8400268554688000,39.0873794555664060,565.9451293945312000,4.3014998435974120,55.7136802673339840,55,98,100,77,82,15548,0,0,0,0,2147122066,2147769819,2147571501,2147570285,31,3,12,12680
1346709886,5811,1010.2500000000000000,38.8387184143066400,566.0053710937500000,4.2996268272399900,55.7475700378418000,55,99,102,78,84,15553,0,0,0,0,2147122441,2147772242,2147570889,2147570084,63,3,13,45138
1346713486,5810,1020.8099975585938000,36.8917083740234400,565.9313964843750000,4.3019242286682130,56.0447006225585940,56,105,102,79,83,15553,0,0,0,0,2147123803,2147777398,2147578505,2147571419,238,3,13,3881
1346717086,5809,1019.1199951171875000,35.8236389160156250,565.7713012695312000,4.3068938255310060,56.2126007080078100,55,96,101,78,83,15553,0,0,0,0,2147120320,2147773979,2147571401,2147566281,198,3,13,32010
1346720686,5809,1017.9799804687500000,36.0777397155761700,565.9904174804688000,4.3000931739807130,56.1732406616210940,55,99,100,78,82,15549,0,0,0,0,2147124160,2147779529,2147573851,2147567862,532,3,13,8268
1346724286,5809,1018.4099731445312000,36.2370796203613300,566.0145263671875000,4.2993469238281250,56.1462707519531250,55,99,105,77,82,15532,0,0,0,0,2147124489,2147772333,2147573101,2147567744,3339,3,13,30047
1346727886,5810,1017.4199829101562000,38.5517501831054700,566.1240844726562000,4.2959418296813965,55.7901802062988300,55,109,102,78,83,15547,0,0,0,0,2147123757,2147770697,2147572955,2147570432,152,3,13,9168
1346731486,5811,1022.8499755859375000,36.7553901672363300,565.9586791992188000,4.3010768890380860,56.0699882507324200,55,98,102,79,83,15549,0,0,0,0,2147122944,2147775881,2147575451,2147567396,96,3,13,40292
1346735086,5809,1022.3300170898438000,35.8832511901855500,565.8726196289062000,4.3037509918212890,56.2035789489746100,55,98,102,77,83,15545,0,0,0,0,2147123830,2147772644,2147567762,2147568960,235,3,13,23668
1346738686,5811,1021.8400268554688000,36.8620910644531250,566.0288696289062000,4.2988967895507810,56.0499191284179700,56,98,101,78,83,15546,0,0,0,0,2147121526,2147770176,2147570413,2147566491,3397,3,13,65456
1346742286,5810,1015.9400024414062000,36.3306808471679700,566.0675048828125000,4.2976989746093750,56.1322517395019500,55,100,100,80,82,15545,0,0,0,0,2147123419,2147774473,2147568384,2147565010,299,3,13,212
1346745886,5812,1021.7999877929688000,38.2971687316894500,565.9937133789062000,4.2999920845031740,55.8285293579101560,54,98,101,78,83,15544,0,0,0,0,2147120841,2147771099,2147571986,2147568137,3509,3,13,15012
1346749486,5813,1023.7500000000000000,37.6813888549804700,566.1107788085938000,4.2963562011718750,55.9239387512207000,55,100,102,79,83,15543,0,0,0,0,2147123145,2147777280,2147567926,2147567908,401,3,13,24446
1346753086,5812,1022.2000122070312000,37.3908195495605500,565.9348144531250000,4.3018188476562500,55.9704818725585940,55,98,101,78,83,15544,0,0,0,0,2147125202,2147778459,2147574390,2147567926,3568,3,13,39655
1346756686,5811,1021.5499877929688000,38.5492897033691400,565.9243164062500000,4.3021450042724610,55.7888717651367200,55,98,101,78,84,15545,0,0,0,0,2147121024,2147776658,2147566491,2147570432,128,3,13,37518
1346760286,5809,1022.0000000000000000,38.1951293945312500,566.0593261718750000,4.2979550361633300,55.8494987487793000,56,99,101,78,82,15542,0,0,0,0,2147121499,2147773403,2147573083,2147568813,281,3,13,8137
1346763886,5811,1022.3400268554688000,37.2796516418457000,565.8159790039062000,4.3055062294006350,55.9849891662597660,56,99,100,78,82,15544,0,0,0,0,2147122294,2147770916,2147572516,2147568585,266,3,13,59487
1346767486,5809,1024.0600585937500000,38.2693290710449200,565.9180297851562000,4.3023400306701660,55.8357009887695300,55,98,102,78,83,15541,0,0,0,0,2147120320,2147780315,2147570989,2147569152,141,3,13,37322
1346771086,5811,1023.0100097656250000,36.9208488464355500,566.0048217773438000,4.2996459007263180,56.0374794006347660,55,98,102,77,82,15538,0,0,0,0,2147121956,2147771712,2147571940,2147568914,8,3,13,55706
1346774686,5812,1029.0100097656250000,37.6811790466308600,565.7479248046875000,4.3076210021972660,55.9206199645996100,56,98,102,82,82,15534,0,0,0,0,2147124690,2147775405,2147573540,2147570633,217,3,13,44596
1346778286,5810,1017.0999755859375000,36.9488487243652340,565.9567871093750000,4.3011341094970700,56.0399398803710940,55,100,100,78,84,15536,0,0,0,0,2147122166,2147774784,2147568768,2147567122,188,3,13,44015
1346781886,5810,1021.7100219726562000,38.7138099670410160,565.9807739257812000,4.3003897666931150,55.7696189880371100,55,98,102,78,83,15537,0,0,0,0,2147124004,2147771794,2147569097,2147569837,78,3,13,16524
1346785486,5807,1025.0799560546875000,38.2636718750000000,566.0598144531250000,4.2979388236999510,55.8348007202148440,56,100,100,79,82,15537,0,0,0,0,2147126491,2147773604,2147572388,2147568621,5,3,12,29847
1346786755,5810,1026.8499755859375000,37.6521797180175800,565.8084716796875000,4.3057379722595215,55.9287910461425800,55,98,100,78,82,15537,0,0,0,0,2147122843,2147773403,2147568502,2147567744,380,3,13,33819
